Weather in Khilkovo

Russia / Samara Oblast     53°28′29″N   50°56′28″E
temp.,
°C
wind,
m/s
gust,
m/s
humid.,
%
clouds,
%
prec.,
mm/h
press.,
hPa
HPBL,
m
8 august, mon
mon801:00+20ene226071 0.0 101827
04:00+19ne226477 0.0 101912
07:00+21ne235962 0.0 1020113
10:00+27ne334418 0.0 1019674
13:00+30ne3335100 0.0 10192777
16:00+29n4440100 0.0 10181568
19:00+25n3455100 0.0 101890
22:00+21ene226495 0.0 101911
9 august, tue
tue901:00+21nne2263100 0.0 101918
04:00+20nne2367100 0.2 101954
07:00+21nne2473100 0.7 1019117
10:00+26ne3353100 0.7 1019606
13:00+29ene3343100 0.0 10191805
16:00+28ne2244100 0.0 1018937
19:00+26ne245559 0.2 101876
22:00+21ne116968 0.3 101912
10 august, wed
wed1001:00+20ne117295 0.1 101812
04:00+19ne1178100 0.1 101811
07:00+21ese017259 0.1 101961
10:00+27e10530 0.1 1019674
13:00+30wsw11410 0.0 10182028
16:00+28nw224651 0.0 101752
19:00+24nnw366248 0.0 1017115
22:00+22e226893 0.4 101720
11 august, thu
thu1101:00+20nne0176100 0.0 101711
04:00+19nw117973 0.0 101711
07:00+20nw377993 0.1 1018225
10:00+23nnw5764100 0.1 1019558
13:00+25nw5652100 0.0 10191129
16:00+26nw673275 0.0 10191563
19:00+21nnw710520 0.0 1020756
22:00+14nnw33770 0.0 102229
12 august, fri
fri1201:00+13nnw33823 0.0 102239
04:00+12nnw35818 0.0 102271
07:00+15nnw3767100 0.0 1023196
10:00+21nnw454514 0.0 1023927
13:00+24nw453694 0.0 10222101
16:00+25nw45345 0.0 10212228
19:00+22nw36465 0.0 1020130
22:00+17nw22600 0.0 102117